This is the latest recevied weather packets stored in our database for station/object RN1M-13. If no packets are shown the sender has not sent any weather packets the latest 1 day(s).
| Time | Temp. | Humidity | Pressure | Rain* | Wind** | Luminosity | Snow |
|---|---|---|---|---|---|---|---|
| 1778103768 | 8.89° C | 87% | 1013.7 hPa | - | - | - | - |
| 1778102868 | 8.89° C | 85% | 1013.5 hPa | - | - | - | - |
| 1778101968 | 8.89° C | 92% | 1013.3 hPa | - | - | - | - |
| 1778100168 | 8.89° C | 100% | 1013.3 hPa | - | - | - | - |
| 1778099268 | 8.89° C | 100% | 1013.3 hPa | - | - | - | - |
| 1778087573 | 8.89° C | 96% | 1013.5 hPa | - | - | - | - |
| 1778082180 | 8.89° C | 55% | 1013.3 hPa | - | - | - | - |
| 1778079480 | 9.44° C | 58% | 1013.3 hPa | - | - | - | - |
| 1778078580 | 9.44° C | 56% | 1013.2 hPa | - | - | - | - |
| 1778077680 | 10° C | 53% | 1013.2 hPa | - | - | - | - |
| 1778076780 | 9.44° C | 45% | 1012.9 hPa | - | - | - | - |
| 1778075882 | 10° C | 46% | 1012.8 hPa | - | - | - | - |
| 1778071387 | 10.56° C | 48% | 1012.6 hPa | - | - | - | - |
| 1778070487 | 10° C | 54% | 1012.6 hPa | - | - | - | - |
| 1778069587 | 10.56° C | 60% | 1012.6 hPa | - | - | - | - |
| 1778067787 | 8.89° C | 63% | 1012.7 hPa | - | - | - | - |
| 1778064196 | 10° C | 74% | 1012.3 hPa | - | - | - | - |
| 1778063296 | 10° C | 75% | 1012.1 hPa | - | - | - | - |
| 1778062396 | 10° C | 79% | 1011.9 hPa | - | - | - | - |
| 1778061495 | 9.44° C | 82% | 1011.7 hPa | - | - | - | - |
| 1778060595 | 10° C | 82% | 1011.5 hPa | - | - | - | - |
| 1778056095 | 9.44° C | 100% | 1010.4 hPa | - | - | - | - |
| 1778054297 | 10° C | 100% | 1010 hPa | - | - | - | - |
| 1778053403 | 9.44° C | 100% | 1009.8 hPa | - | - | - | - |
| 1778052503 | 9.44° C | 100% | 1009.5 hPa | - | - | - | - |
* Rain since midnight (hover to see other rain measurements)
** Current wind speed in m/s (hover to see current wind gust speed)